Date String (YYYY-MM-DD hh:mm:ss) UTC,Instrument flags,absolute air pressure of the measurement (hPa),sample flow rate (lpm),inlet stack bypass flow (lpm),air temperature of the measurement (°C),ambient temperature measured by the external sensor (°C),aerosol sample conditioner tube jacket temperature (°C),OPC LED temperature (°C),internal box temperature (°C),relative humidity of the measurement (%),span deviation,mass concentration of particles derived from Lorenz-Mie calculation of OPC scattering (μg/m³),mass concentration of particles derived from Lorenz-Mie calculation of OPC scattering (μg/m³),mass concentration of particles derived from Lorenz-Mie calculation of OPC scattering (μg/m³)
DateTimeUTC,F1_M11,P_M11,Q1_M11,Q2_M11,T1_M11,T2_M11,T3_M11,T4_M11,T5_M11,U1_M11,ZSPAN_M11,X2_M11,X0_M11,X1_M11
2023-11-08 14:00:00,SystemResetWarning,0828.3,5.00,000.00,026.5,025.5,000.0,034.9,027.9,15.7,0000.0,0004.31,0009.97,0003.65
2023-11-08 14:01:00,SystemResetWarning,0828.4,4.99,000.00,026.5,025.5,000.0,034.9,027.9,15.7,0000.0,0004.30,0010.17,0003.62
2023-11-08 14:02:00,SystemResetWarning,0828.4,5.00,000.00,026.5,025.5,000.0,034.9,027.9,15.7,0000.0,0004.23,0009.93,0003.60
2023-11-08 14:03:00,SystemResetWarning,0828.4,5.01,000.00,026.5,025.5,000.0,034.9,028.0,15.7,0000.0,0004.21,0009.80,0003.60
2023-11-08 14:04:00,SystemResetWarning,0828.5,4.99,000.00,026.5,025.5,000.0,034.9,028.0,15.7,0000.0,0004.18,0010.51,0003.60
2023-11-08 14:05:00,SystemResetWarning,0828.6,4.99,000.00,026.5,025.5,000.0,034.9,028.0,15.8,0000.0,0004.19,0010.86,0003.60
2023-11-08 14:06:00,SystemResetWarning,0828.5,5.00,000.00,026.5,025.5,000.0,034.9,028.0,15.8,0000.0,0004.18,0010.85,0003.60
2023-11-08 14:07:00,SystemResetWarning,0828.6,4.99,000.00,026.5,025.5,000.0,034.9,028.0,15.9,0000.0,0004.14,0010.89,0003.60
2023-11-08 14:08:00,SystemResetWarning,0828.6,5.00,000.00,026.5,025.5,000.0,034.9,028.0,15.9,0000.0,0004.19,0011.06,0003.61
2023-11-08 14:09:00,SystemResetWarning,0828.6,5.00,000.00,026.5,025.5,000.0,034.9,028.0,15.9,0000.0,0004.25,0010.90,0003.61
2023-11-08 14:10:00,SystemResetWarning,0828.6,5.00,000.00,026.5,025.5,000.0,034.9,028.0,15.9,0000.0,0004.27,0010.80,0003.60
2023-11-08 14:11:00,SystemResetWarning,0828.7,5.00,000.00,026.5,025.5,000.0,034.9,028.0,15.9,0000.0,0004.26,0011.02,0003.59
2023-11-08 14:12:00,SystemResetWarning,0828.7,5.00,000.00,026.5,025.5,000.0,034.9,028.0,16.0,0000.0,0004.25,0011.21,0003.60
2023-11-08 14:13:00,SystemResetWarning,0828.7,5.00,000.00,026.5,025.5,000.0,034.9,028.0,16.1,0000.0,0004.29,0011.36,0003.60
2023-11-08 14:14:00,SystemResetWarning,0828.6,5.00,000.00,026.5,025.5,000.0,034.9,027.9,16.1,0000.0,0004.32,0011.93,0003.60
2023-11-08 14:15:00,SystemResetWarning,0828.7,5.00,000.00,026.5,025.5,000.0,034.9,027.9,16.0,0000.0,0004.35,0011.44,0003.60
2023-11-08 14:16:00,SystemResetWarning,0828.7,5.01,000.00,026.5,025.5,000.0,034.9,027.9,16.0,0000.0,0004.38,0011.14,0003.60
2023-11-08 14:17:00,SystemResetWarning,0828.7,5.00,000.00,026.5,025.5,000.0,034.9,027.9,15.9,0000.0,0004.40,0010.98,0003.60
2023-11-08 14:18:00,SystemResetWarning,0828.7,5.00,000.00,026.5,025.5,000.0,034.9,027.9,15.9,0000.0,0004.43,0010.51,0003.61
2023-11-08 14:19:00,SystemResetWarning,0828.8,5.00,000.00,026.5,025.5,000.0,034.9,027.9,15.7,0000.0,0004.44,0010.58,0003.62
2023-11-08 14:20:00,SystemResetWarning,0828.8,5.00,000.00,026.5,025.5,000.0,034.9,027.9,15.6,0000.0,0004.40,0010.74,0003.61
2023-11-08 14:21:00,SystemResetWarning,0828.8,5.00,000.00,026.5,025.5,000.0,034.9,027.9,15.5,0000.0,0004.40,0011.19,0003.59
2023-11-08 14:22:00,SystemResetWarning,0828.8,4.99,000.00,026.5,025.5,000.0,034.9,027.9,15.5,0000.0,0004.35,0011.15,0003.57
2023-11-08 14:23:00,SystemResetWarning,0828.7,5.00,000.00,026.5,025.5,000.0,034.9,027.9,15.5,0000.0,0004.32,0010.71,0003.54
2023-11-08 14:24:00,SystemResetWarning,0828.8,5.00,000.00,026.5,025.5,000.0,034.9,027.9,15.4,0000.0,0004.26,0010.43,0003.51
2023-11-08 14:25:00,SystemResetWarning,0828.8,5.00,000.00,026.5,025.5,000.0,034.9,027.9,15.5,0000.0,0004.21,0010.20,0003.48
2023-11-08 14:26:00,SystemResetWarning,0828.8,5.00,000.00,026.5,025.5,000.0,034.9,027.9,15.5,0000.0,0004.17,0010.33,0003.44
2023-11-08 14:27:00,SystemResetWarning,0828.8,5.00,000.00,026.5,025.5,000.0,034.9,027.9,15.5,0000.0,0004.13,0010.47,0003.40
2023-11-08 14:28:00,SystemResetWarning,0828.8,5.01,000.00,026.5,025.5,000.0,034.9,027.9,15.4,0000.0,0004.06,0010.35,0003.37
2023-11-08 14:29:00,SystemResetWarning,0828.8,5.00,000.00,026.5,025.5,000.0,034.9,027.9,15.4,0000.0,0004.00,0010.12,0003.34
2023-11-08 14:30:00,SystemResetWarning,0828.8,5.01,000.00,026.5,025.5,000.0,034.9,027.9,15.4,0000.0,0003.95,0009.97,0003.30
2023-11-08 14:31:00,SystemResetWarning,0828.9,5.00,000.00,026.5,025.5,000.0,034.9,027.9,15.2,0000.0,0003.91,0009.98,0003.28
2023-11-08 14:32:00,SystemResetWarning,0829.0,5.00,000.00,026.5,025.5,000.0,034.9,027.9,15.1,0000.0,0003.88,0009.61,0003.27
2023-11-08 14:33:00,SystemResetWarning,0829.0,5.00,000.00,026.5,025.5,000.0,034.9,027.9,15.2,0000.0,0003.84,0009.08,0003.24
2023-11-08 14:34:00,SystemResetWarning,0828.9,4.99,000.00,026.4,025.4,000.0,034.9,027.9,15.3,0000.0,0003.79,0009.42,0003.21
2023-11-08 14:35:00,SystemResetWarning,0829.1,4.99,000.00,026.5,025.4,000.0,034.9,027.9,15.3,0000.0,0003.77,0009.67,0003.18
2023-11-08 14:36:00,SystemResetWarning,0829.1,5.00,000.00,026.5,025.4,000.0,034.9,027.9,15.1,0000.0,0003.75,0009.34,0003.17
2023-11-08 14:37:00,SystemResetWarning,0829.1,5.00,000.00,026.5,025.4,000.0,034.9,027.9,15.2,0000.0,0003.72,0009.10,0003.17
2023-11-08 14:38:00,SystemResetWarning,0829.1,5.00,000.00,026.4,025.4,000.0,034.9,027.9,15.2,0000.0,0003.64,0008.40,0003.15
2023-11-08 14:39:00,SystemResetWarning,0829.1,5.00,000.00,026.4,025.4,000.0,034.8,027.9,15.1,0000.0,0003.62,0008.29,0003.13
2023-11-08 14:40:00,SystemResetWarning,0829.1,5.01,000.00,026.4,025.4,000.0,034.8,027.9,15.1,0000.0,0003.60,0008.25,0003.10
2023-11-08 14:41:00,SystemResetWarning,0829.2,5.00,000.00,026.4,025.4,000.0,034.8,027.8,15.2,0000.0,0003.57,0007.81,0003.06
2023-11-08 14:42:00,SystemResetWarning,0829.2,5.01,000.00,026.4,025.4,000.0,034.8,027.9,15.2,0000.0,0003.53,0007.42,0003.02
2023-11-08 14:43:00,SystemResetWarning,0829.3,5.00,000.00,026.4,025.4,000.0,034.8,027.9,15.2,0000.0,0003.49,0007.10,0002.99
2023-11-08 14:44:00,SystemResetWarning,0829.3,5.01,000.00,026.4,025.4,000.0,034.8,027.9,15.1,0000.0,0003.49,0007.32,0002.99
2023-11-08 14:45:00,SystemResetWarning,0829.4,4.99,000.00,026.4,025.4,000.0,034.8,027.8,15.1,0000.0,0003.50,0006.48,0003.00
2023-11-08 14:46:00,SystemResetWarning,0829.3,4.99,000.00,026.4,025.4,000.0,034.8,027.8,15.1,0000.0,0003.49,0005.76,0003.00
2023-11-08 14:47:00,SystemResetWarning,0829.4,5.01,000.00,026.4,025.4,000.0,034.8,027.9,15.0,0000.0,0003.45,0005.58,0002.98
2023-11-08 14:48:00,SystemResetWarning,0829.4,5.00,000.00,026.4,025.4,000.0,034.8,027.8,15.1,0000.0,0003.45,0005.53,0002.96
2023-11-08 14:49:00,SystemResetWarning,0829.3,4.99,000.00,026.4,025.4,000.0,034.8,027.9,15.3,0000.0,0003.45,0005.55,0002.95
2023-11-08 14:50:00,SystemResetWarning,0829.3,5.00,000.00,026.4,025.5,000.0,034.8,027.9,15.4,0000.0,0003.44,0005.51,0002.93
2023-11-08 14:51:00,SystemResetWarning,0829.4,4.99,000.00,026.4,025.5,000.0,034.8,027.9,15.4,0000.0,0003.44,0005.66,0002.93
2023-11-08 14:52:00,SystemResetWarning,0829.3,5.00,000.00,026.4,025.5,000.0,034.8,027.9,15.2,0000.0,0003.45,0006.78,0002.92
2023-11-08 14:53:00,SystemResetWarning,0829.4,5.00,000.00,026.4,025.5,000.0,034.8,027.9,15.1,0000.0,0003.45,0007.47,0002.90
2023-11-08 14:54:00,SystemResetWarning,0829.4,5.00,000.00,026.4,025.5,000.0,034.8,027.9,15.0,0000.0,0003.44,0007.41,0002.87
2023-11-08 14:55:00,SystemResetWarning,0829.3,5.01,000.00,026.4,025.5,000.0,034.8,027.8,15.0,0000.0,0003.43,0007.12,0002.83
2023-11-08 14:56:00,SystemResetWarning,0829.5,5.00,000.00,026.4,025.5,000.0,034.8,027.8,15.3,0000.0,0003.42,0007.14,0002.79
2023-11-08 14:57:00,SystemResetWarning,0829.5,5.00,000.00,026.4,025.5,000.0,034.8,027.8,15.2,0000.0,0003.42,0007.28,0002.77
2023-11-08 14:58:00,SystemResetWarning,0829.6,5.00,000.00,026.4,025.5,000.0,034.8,027.9,15.1,0000.0,0003.46,0007.43,0002.76
2023-11-08 14:59:00,SystemResetWarning,0829.6,5.00,000.00,026.4,025.4,000.0,034.8,027.9,15.2,0000.0,0003.46,0007.54,0002.74
